PBO Station Position Time Series. Reference Frame : NAM14
Format Version,1.1.0
4-character ID,SRS1
Station name,SRS1_SCGN_CS2000
Begin Date, 2000-06-16
End Date, 2019-10-07
Release Date, 2019-10-08
Reference position, 34.0043361196 North Latitude, -120.0652218108 East Longitude, 68.22118 meters elevation,
Date, North (mm), East (mm), Vertical (mm), North Std. Deviation (mm), East Std. Deviation (mm),              Vertical Std. Deviation (mm), Quality,
2000-06-16,0.00, 0.00, 0.00, 2.20, 2.02, 9.06, repro,
2000-06-17,-0.76, 1.49, -1.38, 2.12, 1.96, 8.54, repro,
2000-06-18,0.74, 0.45, 0.60, 2.05, 1.85, 8.22, repro,
2000-06-19,-0.18, 0.44, 6.35, 2.09, 1.86, 8.52, repro,
2000-06-20,-0.01, 0.74, 3.58, 2.10, 1.87, 8.52, repro,
2000-06-21,1.69, 1.13, 0.57, 2.33, 2.13, 9.41, repro,
2000-06-22,0.55, 1.24, -3.34, 2.31, 2.22, 10.18, repro,
2000-06-23,0.43, 1.62, -6.00, 2.33, 2.15, 9.77, repro,
2000-06-24,0.36, 0.95, -2.40, 2.15, 1.83, 8.52, repro,
2000-06-25,-0.20, 0.63, -3.97, 2.15, 1.93, 8.57, repro,
2000-06-26,0.19, 1.41, -0.91, 2.17, 1.89, 8.84, repro,
2000-06-27,-0.78, 1.77, -0.77, 2.68, 2.13, 10.52, repro,
2000-07-06,0.69, 0.59, 2.99, 2.92, 2.80, 11.80, repro,
2000-07-07,-0.84, 1.58, -9.29, 2.23, 1.97, 8.79, repro,
2000-07-08,-1.28, 0.10, -4.00, 2.15, 1.93, 8.59, repro,
2000-07-09,-0.97, 1.09, -0.89, 2.19, 1.88, 8.74, repro,
2000-07-10,-0.38, 0.54, 2.75, 2.18, 1.87, 8.72, repro,
2000-07-11,-0.58, -0.36, 8.17, 2.19, 1.91, 8.59, repro,
2000-07-12,-0.75, -0.91, -2.20, 2.23, 2.01, 8.73, repro,
2000-07-13,-0.66, 1.34, -10.93, 2.13, 1.90, 8.54, repro,
2000-07-14,-1.19, 1.74, -8.84, 2.26, 2.00, 9.01, repro,
2000-07-15,-0.04, 2.10, -8.18, 2.15, 1.88, 8.60, repro,
2000-07-16,0.76, 0.22, -8.18, 2.07, 1.82, 8.40, repro,
2000-07-17,-1.23, 1.37, -1.01, 2.13, 1.88, 8.49, repro,
2000-07-18,0.24, 0.04, -11.90, 2.21, 1.97, 8.75, repro,
2000-07-19,-0.45, 2.14, -14.59, 2.26, 1.95, 9.03, repro,
2000-07-20,-0.36, 0.26, -3.07, 2.06, 1.82, 8.31, repro,
2000-07-21,1.10, 0.94, 2.06, 2.12, 1.86, 8.44, repro,
2000-07-22,-0.37, 1.11, -0.57, 2.29, 2.00, 9.41, repro,
2000-07-23,-2.05, 0.78, 4.05, 2.22, 1.89, 8.67, repro,
2000-12-14,-4.73, -1.59, 9.98, 6.78, 6.29, 28.12, repro,
2000-12-15,-2.78, -7.01, 15.55, 5.82, 5.46, 26.15, repro,
2000-12-16,-1.24, 0.74, 6.37, 5.72, 5.32, 24.62, repro,
2000-12-17,-0.18, -0.04, 10.65, 5.72, 5.51, 25.47, repro,
2000-12-18,-2.35, -2.50, 7.37, 7.96, 7.69, 33.88, repro,
2000-12-19,-2.38, 1.27, -3.75, 6.76, 5.93, 27.28, repro,
2000-12-20,-4.63, -2.89, 1.66, 5.49, 5.25, 23.62, repro,
2000-12-21,1.20, 1.96, -22.46, 6.37, 5.75, 25.98, repro,
2000-12-22,-1.95, -2.62, -6.44, 6.13, 5.74, 25.44, repro,
2000-12-23,-6.17, 1.02, 0.54, 5.42, 5.34, 23.27, repro,
2000-12-24,-1.93, 0.71, -15.63, 5.67, 5.41, 23.98, repro,
2000-12-25,-3.99, -4.07, -12.55, 6.17, 5.44, 24.81, repro,
2000-12-26,-1.18, -1.36, -10.96, 6.00, 5.58, 24.92, repro,
2000-12-27,-2.49, -0.52, 1.00, 5.72, 5.46, 24.35, repro,
2000-12-28,-4.10, 1.18, 16.88, 6.15, 6.05, 26.04, repro,
2000-12-29,-2.92, 0.45, -10.27, 6.34, 6.60, 25.82, repro,
2000-12-30,-5.96, 0.75, 8.67, 5.73, 5.35, 22.45, repro,
2000-12-31,-0.06, -3.92, 13.25, 6.15, 6.11, 26.10, repro,
2001-01-01,-3.52, 0.86, 6.45, 6.07, 5.81, 25.93, repro,
2001-01-02,-3.74, 2.82, 12.74, 5.93, 5.73, 24.87, repro,
2001-01-03,-3.17, -5.22, 3.18, 5.78, 5.57, 23.65, repro,
2001-01-04,-2.07, -3.48, -0.25, 5.44, 5.48, 22.70, repro,
2001-01-05,0.35, -1.50, 7.21, 6.23, 5.95, 24.83, repro,
2001-01-06,-4.70, -0.01, 9.55, 6.88, 6.05, 26.53, repro,
2001-01-07,4.30, 4.67, -7.04, 5.76, 5.59, 23.04, repro,
2001-01-08,-0.11, -0.89, 2.20, 5.66, 5.54, 23.33, repro,
2001-01-09,-1.54, 3.43, 18.31, 5.57, 5.36, 22.00, repro,
2001-01-10,0.90, -1.53, 25.88, 5.77, 5.69, 24.19, repro,
2001-01-11,0.18, 1.32, 3.75, 5.50, 5.57, 22.59, repro,
2001-01-12,-3.50, -2.67, -4.04, 5.82, 5.81, 24.03, repro,
2001-01-13,0.66, 1.75, 15.44, 5.94, 6.18, 26.15, repro,
2001-01-14,2.11, -4.05, 2.71, 5.62, 5.76, 23.04, repro,
2001-01-15,-1.14, 4.68, 21.97, 5.66, 5.45, 22.67, repro,
2001-01-16,-2.50, 1.11, -1.38, 5.49, 5.45, 21.77, repro,
2001-01-17,-2.12, -0.16, -2.94, 6.18, 6.65, 27.10, repro,
2001-01-18,-2.21, -3.71, -2.44, 5.48, 5.78, 23.33, repro,
2001-01-19,-3.55, -5.85, -0.01, 7.68, 9.46, 34.29, repro,
2001-01-20,0.01, 1.40, 0.40, 5.51, 5.79, 23.31, repro,
2001-01-21,-1.55, -2.74, -14.28, 6.53, 7.08, 31.15, repro,
2001-01-22,0.40, -1.54, -6.46, 5.77, 6.04, 24.44, repro,
2001-01-23,-1.99, 0.80, -17.56, 6.15, 6.97, 28.59, repro,
2001-01-24,-2.47, -1.35, 2.64, 5.81, 6.21, 25.54, repro,
2001-01-25,-2.45, 6.30, -6.42, 6.35, 6.75, 25.53, repro,
2001-01-26,-2.39, -2.74, -7.44, 5.93, 6.11, 25.22, repro,
2001-01-27,-3.73, 0.10, 7.27, 5.64, 5.98, 23.53, repro,
2001-01-28,0.10, -2.23, -1.45, 5.73, 6.19, 25.35, repro,
2001-01-29,-2.63, 1.01, 0.10, 5.90, 6.22, 27.23, repro,
2001-01-30,-0.05, 1.83, -4.89, 5.54, 5.47, 23.15, repro,
2001-01-31,-5.62, -1.50, 17.63, 5.94, 5.80, 25.55, repro,
2001-02-01,-1.27, 3.88, -0.52, 5.74, 5.93, 24.85, repro,
2001-02-02,-2.16, -1.55, 2.63, 5.65, 5.62, 24.27, repro,
2001-02-03,0.88, 0.92, -17.09, 5.39, 5.43, 23.47, repro,
2001-02-04,0.59, 1.81, -2.55, 5.49, 5.34, 23.75, repro,
2001-02-05,-5.50, 0.45, 17.64, 6.93, 6.20, 29.48, repro,
2001-02-06,0.55, 2.23, -16.68, 5.72, 5.77, 25.57, repro,
2001-02-07,-6.76, 4.29, 3.63, 5.76, 5.88, 26.79, repro,
2001-02-08,2.24, -0.05, -5.80, 6.18, 6.62, 30.31, repro,
2001-02-09,1.23, 0.13, -4.08, 6.29, 7.72, 29.08, repro,
2001-02-10,1.06, -3.84, -9.78, 5.31, 5.32, 23.74, repro,
2001-02-11,-1.03, 3.16, 3.69, 6.53, 6.83, 24.80, repro,
2001-02-12,-0.23, -0.49, 13.69, 6.00, 6.55, 26.12, repro,
2001-02-13,4.35, -0.56, -15.07, 5.31, 5.33, 23.76, repro,
2001-02-14,-0.88, 2.66, 17.27, 5.59, 5.36, 25.39, repro,
2001-02-15,-1.74, -1.26, 10.81, 5.69, 5.73, 27.53, repro,
2001-02-16,2.06, -0.83, -3.00, 5.24, 5.47, 23.56, repro,
2001-02-17,-2.64, -0.45, -5.03, 5.40, 5.28, 24.07, repro,
2001-02-18,8.04, -3.82, -22.55, 5.88, 6.35, 24.47, repro,
2001-02-19,-1.91, -1.39, 22.50, 5.47, 5.21, 24.42, repro,
2001-02-20,-0.11, -1.21, -2.34, 5.29, 5.35, 23.32, repro,
2001-02-21,0.01, 1.96, -0.98, 5.82, 6.19, 23.71, repro,
2001-02-22,-0.74, -2.15, 5.37, 5.21, 5.23, 22.63, repro,
2001-02-23,-1.02, 2.94, 10.82, 6.00, 6.59, 24.08, repro,
2001-02-24,-0.57, 1.52, 11.16, 6.80, 7.52, 28.79, repro,
2001-02-25,-0.37, -2.11, -10.68, 5.65, 6.67, 27.54, repro,
2001-02-26,1.51, 1.92, -7.98, 6.79, 7.69, 30.11, repro,
2001-02-27,2.19, 1.09, -13.98, 5.59, 5.65, 23.78, repro,
2001-02-28,0.28, 1.60, -4.85, 5.55, 5.46, 23.29, repro,
2001-03-01,2.15, -1.33, 10.06, 5.77, 6.22, 22.31, repro,
2001-03-02,-1.43, -0.74, -9.45, 5.89, 6.65, 22.27, repro,
2001-03-03,-0.01, 1.45, -17.71, 6.01, 6.09, 22.19, repro,
2001-03-04,-0.45, 2.41, 8.25, 5.40, 5.37, 22.06, repro,
2001-03-05,-1.54, 0.92, 4.48, 6.09, 6.38, 22.47, repro,
2001-03-06,1.55, -4.46, 8.98, 5.29, 5.28, 20.85, repro,
2001-03-07,3.39, 0.46, -10.13, 5.36, 5.34, 20.96, repro,
2001-03-08,2.11, 1.58, 19.95, 5.48, 5.18, 20.91, repro,
2001-03-09,-1.48, -3.83, 23.13, 5.83, 5.91, 24.05, repro,
2001-03-10,-2.15, 9.79, 24.50, 6.26, 6.81, 23.59, repro,
2001-03-11,3.50, 4.92, 6.67, 5.82, 5.95, 20.65, repro,
2001-03-12,2.28, -1.68, 10.76, 6.01, 6.12, 20.98, repro,
2001-03-13,2.66, 4.05, 2.59, 5.49, 5.18, 20.60, repro,
2001-03-14,1.96, 3.64, 0.16, 5.48, 5.37, 21.01, repro,
2001-03-15,2.63, 2.93, 6.62, 6.23, 6.17, 25.58, repro,
2001-03-16,-1.17, 4.76, 3.24, 6.29, 6.05, 25.63, repro,
2001-03-17,-2.45, -3.35, 7.52, 6.21, 6.13, 22.21, repro,
2001-03-18,0.23, 1.37, -16.29, 5.34, 5.22, 20.35, repro,
2001-03-19,3.15, 1.60, -8.54, 5.36, 5.25, 20.92, repro,
2001-03-20,2.72, -1.02, 2.36, 6.16, 6.37, 26.60, repro,
2001-03-21,0.41, 5.88, 1.55, 5.76, 5.64, 23.59, repro,
2001-03-22,-0.80, 1.07, -8.25, 5.77, 5.67, 22.99, repro,
2001-05-09,-0.41, 0.87, 3.03, 2.09, 1.83, 8.20, repro,
2001-05-10,-1.57, 1.27, -0.35, 2.05, 1.87, 8.31, repro,
2001-05-11,-0.70, 2.33, -0.25, 2.10, 1.88, 8.49, repro,
2001-05-12,-1.32, 1.46, -0.08, 2.06, 1.88, 8.28, repro,
2001-05-13,0.08, 1.64, -4.08, 2.01, 1.77, 7.97, repro,
2001-05-14,-1.08, 0.83, 3.39, 2.07, 1.86, 8.30, repro,
2001-05-15,0.40, 0.96, -0.42, 2.07, 1.89, 8.28, repro,
2001-05-16,0.46, 0.62, -4.32, 2.07, 1.86, 8.12, repro,
2001-05-17,-0.37, 1.39, 4.86, 2.12, 1.95, 8.44, repro,
2001-05-18,-0.85, 2.15, 0.28, 2.10, 1.93, 8.47, repro,
2001-05-19,-0.25, 0.49, -0.62, 2.08, 1.87, 8.22, repro,
2001-05-20,-0.20, 1.17, 1.40, 2.04, 1.82, 8.06, repro,
2001-05-21,-0.27, 2.02, 3.31, 2.05, 1.88, 8.30, repro,
2001-05-22,-0.88, 0.31, 4.88, 2.12, 2.05, 8.78, repro,
2001-05-23,-1.37, 1.52, 0.90, 2.11, 1.91, 8.57, repro,
2001-05-24,-0.33, 1.38, 3.84, 2.21, 1.91, 8.65, repro,
2001-05-25,-0.29, -0.06, 4.89, 2.17, 1.89, 8.39, repro,
2001-05-26,0.18, 0.54, 9.50, 2.21, 1.97, 8.71, repro,
2001-05-27,-0.36, 1.09, 5.71, 2.19, 1.97, 8.74, repro,
2001-05-28,1.50, 0.61, 6.27, 2.13, 1.95, 8.43, repro,
2001-05-29,-0.24, -0.86, 4.29, 2.08, 1.82, 8.12, repro,
2001-05-30,0.48, -0.04, 5.05, 2.18, 1.90, 8.49, repro,
2001-05-31,0.52, 1.10, 3.61, 2.13, 1.83, 8.25, repro,
2001-06-01,0.18, 1.21, 6.23, 2.18, 1.97, 8.70, repro,
2001-06-02,0.18, -0.88, 2.88, 2.12, 2.01, 8.64, repro,
2001-06-03,1.56, 2.04, 2.30, 2.05, 1.83, 8.16, repro,
2001-06-04,0.32, -0.04, 1.22, 2.11, 1.92, 8.56, repro,
2001-06-05,-0.84, 0.53, 3.49, 2.16, 1.92, 8.55, repro,
2001-06-06,-0.34, 0.91, 0.56, 2.16, 1.96, 8.59, repro,
2001-06-07,-0.58, -0.11, 5.24, 2.16, 2.08, 8.83, repro,
2001-06-08,-0.72, 1.14, 8.45, 2.11, 1.84, 8.34, repro,
2001-06-09,1.73, -0.57, -1.28, 2.18, 1.92, 8.69, repro,
2001-06-10,-1.30, 1.30, 5.93, 2.17, 1.92, 8.55, repro,
2001-06-11,0.92, 0.94, 2.18, 2.17, 1.93, 8.59, repro,
2001-06-12,-1.18, 3.51, 3.00, 2.20, 1.91, 8.51, repro,
2001-06-13,-0.42, 1.37, 6.75, 2.13, 1.99, 8.56, repro,
2001-06-14,0.65, 2.28, 6.33, 2.14, 1.83, 8.31, repro,
2001-06-15,-0.11, -1.54, 1.58, 2.12, 1.96, 8.52, repro,
2001-06-16,-0.65, 0.03, -0.41, 2.16, 1.91, 8.46, repro,
2001-06-17,-0.48, 0.77, -0.54, 2.26, 1.98, 8.88, repro,
2001-06-18,-1.18, 1.89, -0.16, 2.16, 1.95, 8.63, repro,
2001-06-19,-0.27, 1.46, 1.17, 2.14, 1.96, 8.45, repro,
2001-06-20,0.55, -0.23, -3.20, 2.20, 2.01, 8.75, repro,
2001-06-21,-2.06, 0.74, 7.58, 2.12, 1.96, 8.33, repro,
2001-06-22,-1.75, -0.29, 3.83, 2.14, 1.92, 8.41, repro,
2001-06-23,-1.37, 0.49, -8.64, 2.16, 1.93, 8.61, repro,
2001-06-24,-1.62, 0.22, 11.02, 2.09, 1.94, 8.18, repro,
2001-06-25,-0.58, 0.62, 9.17, 2.06, 1.88, 8.15, repro,
2001-06-26,-0.48, 2.17, 9.27, 2.10, 1.98, 8.50, repro,
2001-06-27,0.18, 1.14, -5.80, 2.12, 1.96, 8.33, repro,
2001-06-28,0.34, -1.20, 1.42, 2.08, 1.94, 8.27, repro,
2001-06-29,0.32, 1.51, -9.57, 2.09, 1.98, 8.37, repro,
2001-06-30,-2.01, 0.81, -2.70, 2.13, 2.00, 8.62, repro,
2001-07-01,-0.72, 0.07, -1.90, 2.09, 1.90, 8.25, repro,
2001-07-02,-2.18, 0.93, 0.84, 2.08, 1.94, 8.34, repro,
2001-07-03,-0.77, 1.08, 1.23, 2.16, 2.03, 8.69, repro,
2001-07-04,-2.28, -0.14, -10.49, 2.08, 1.89, 8.17, repro,
2001-07-05,-1.42, 0.68, 3.40, 2.06, 1.88, 8.08, repro,
2001-07-06,0.43, -0.08, 1.65, 2.01, 1.74, 7.78, repro,
2001-07-07,-0.63, 0.05, -6.16, 2.09, 1.93, 8.20, repro,
2001-07-08,-0.92, 1.16, -2.75, 2.07, 1.90, 8.11, repro,
2001-07-09,-0.14, 2.59, -16.03, 2.10, 1.95, 8.35, repro,
2001-07-10,-0.52, -0.58, -15.94, 2.33, 2.15, 9.19, repro,
2001-07-11,-2.27, 1.49, -4.52, 2.08, 1.88, 8.12, repro,
2001-07-12,0.09, 0.70, -8.28, 2.16, 1.90, 8.42, repro,
2001-07-13,0.07, 2.43, -11.18, 2.19, 1.98, 8.59, repro,
2001-07-14,1.07, -1.26, -13.66, 2.10, 1.94, 8.25, repro,
2001-07-15,-0.39, 0.52, -4.31, 2.07, 1.93, 8.21, repro,
2001-07-17,-1.63, -0.01, -0.67, 2.08, 1.89, 8.25, repro,
2001-07-18,0.13, 1.49, -9.29, 2.11, 1.95, 8.27, repro,
2001-07-19,-1.04, 1.33, -8.32, 2.04, 1.85, 7.93, repro,
2001-07-20,0.37, 0.14, -11.17, 2.16, 1.94, 8.45, repro,
2001-07-21,-1.51, -0.08, -7.32, 2.06, 1.94, 8.25, repro,
2001-07-22,-1.74, 0.40, -10.99, 2.11, 1.96, 8.40, repro,
2001-07-23,0.41, 0.78, -5.03, 2.17, 1.99, 8.57, repro,
2001-07-24,-0.30, 0.79, 1.28, 2.08, 1.88, 8.12, repro,
2001-07-25,0.31, -0.62, -9.55, 2.08, 1.95, 8.29, repro,
2001-07-26,0.34, 1.46, -8.50, 2.25, 2.08, 8.98, repro,
2001-07-27,-2.53, 2.10, -4.52, 2.13, 1.95, 8.37, repro,
2001-07-28,1.04, -0.04, -9.61, 2.19, 2.06, 8.59, repro,
2001-07-29,-1.21, 1.45, -9.42, 2.16, 2.05, 8.50, repro,
2001-07-30,1.74, -0.90, -5.94, 2.32, 2.07, 8.97, repro,
2001-07-31,-0.60, 2.39, -11.72, 2.11, 1.97, 8.31, repro,
2001-08-01,-1.61, -0.06, -0.26, 2.13, 1.97, 8.35, repro,
2001-08-02,0.47, 1.75, -6.47, 2.15, 1.98, 8.46, repro,
2001-08-03,0.06, 2.11, -5.21, 2.22, 1.99, 8.57, repro,
2001-08-04,2.03, 2.20, -9.96, 2.17, 1.97, 8.44, repro,
2001-08-05,1.95, 0.96, -16.80, 2.25, 2.06, 8.87, repro,
2001-08-06,0.62, -0.35, -8.06, 2.25, 2.12, 8.98, repro,
2001-08-07,-0.60, -0.53, -6.79, 2.17, 1.96, 8.43, repro,
2001-08-08,1.70, 2.48, -7.88, 2.22, 2.11, 8.63, repro,
2001-08-09,-1.11, -0.29, 3.64, 2.26, 2.07, 8.68, repro,
2001-08-10,-0.04, 2.42, -6.75, 2.24, 2.00, 8.69, repro,
2001-08-11,-0.09, -0.07, -2.29, 2.17, 1.87, 8.36, repro,
2001-08-12,0.71, 0.71, -14.58, 2.24, 2.00, 8.75, repro,
2001-08-13,-0.41, 0.41, -11.05, 2.22, 1.96, 8.57, repro,
2001-08-14,-1.64, 1.24, 1.63, 2.18, 2.00, 8.28, repro,
2001-08-15,-3.08, 2.62, -5.14, 2.14, 1.93, 8.19, repro,
2001-08-16,-0.20, 2.54, -7.18, 2.20, 1.88, 8.35, repro,
2001-08-17,-1.90, 3.17, -7.84, 2.20, 1.94, 8.36, repro,
2001-08-18,-0.22, 0.32, -2.71, 2.29, 1.91, 8.65, repro,
2001-08-19,0.75, 1.58, 0.48, 2.11, 1.83, 7.99, repro,
2001-08-20,-0.88, 2.16, -4.97, 2.33, 2.04, 8.88, repro,
2001-08-21,-1.58, 0.38, -1.28, 2.74, 2.26, 9.88, repro,
2001-08-22,-0.25, 1.68, -5.69, 2.22, 1.97, 8.49, repro,
2001-08-23,0.72, 1.34, -12.46, 2.20, 1.89, 8.33, repro,
2001-08-24,3.26, 0.58, -7.84, 2.26, 1.96, 8.50, repro,
2001-08-25,-1.37, 1.03, 6.68, 2.16, 1.87, 8.43, repro,
2001-08-26,0.37, 1.52, -9.08, 2.25, 1.96, 8.48, repro,
2001-08-27,-0.92, 2.06, -9.75, 2.19, 1.89, 8.44, repro,
2001-08-28,-0.27, 2.07, -0.64, 2.35, 2.00, 8.97, repro,
2001-08-29,-1.20, 2.37, -0.20, 2.34, 2.02, 8.98, repro,
2001-08-30,-2.16, 1.63, 1.99, 2.34, 2.00, 8.81, repro,
2001-08-31,-1.41, 1.55, 11.64, 2.46, 2.09, 9.12, repro,
2001-09-01,-0.16, 3.02, -10.55, 2.22, 2.04, 8.79, repro,
2001-09-02,-0.63, 0.81, -1.68, 2.20, 1.98, 8.46, repro,
2001-09-03,1.06, 0.42, -4.15, 2.27, 2.02, 8.93, repro,
2001-09-04,-1.53, 2.06, 6.00, 2.23, 1.97, 8.81, repro,
2001-09-05,1.17, -1.28, 4.46, 2.36, 2.15, 9.27, repro,
2001-09-06,1.42, 0.79, -10.24, 2.27, 2.01, 8.68, repro,
2001-09-07,-0.85, 2.48, -6.69, 2.12, 1.93, 8.39, repro,
2001-09-08,-0.25, 2.23, -0.58, 2.14, 2.01, 8.51, repro,
2001-09-09,-1.43, 2.25, 1.59, 2.18, 2.03, 8.49, repro,
2001-09-10,-1.01, 1.19, -6.20, 2.07, 1.85, 8.16, repro,
2001-09-11,-0.39, 0.99, -3.45, 2.18, 2.02, 8.56, repro,
2001-09-12,0.64, 1.17, -0.14, 2.13, 1.92, 8.36, repro,
2001-09-13,-0.30, 2.09, 1.68, 2.07, 1.84, 8.17, repro,
2001-09-14,-0.84, 1.34, -2.50, 2.04, 1.78, 7.97, repro,
2001-09-15,-0.52, 2.28, 2.96, 2.10, 1.92, 8.31, repro,
2001-09-16,-0.45, 1.02, 2.59, 2.12, 1.91, 8.30, repro,
2001-09-17,-1.26, 1.54, 9.84, 2.07, 1.83, 8.10, repro,
2001-09-18,-0.76, 1.39, 2.74, 2.15, 1.97, 8.49, repro,
2001-09-19,0.17, 1.69, 0.34, 2.19, 1.99, 8.70, repro,
2001-09-20,-1.37, 1.08, 6.94, 2.18, 1.99, 8.72, repro,
2001-09-21,-0.88, 0.71, -2.52, 2.06, 1.83, 8.17, repro,
2001-09-22,-1.05, 1.45, 6.40, 2.08, 1.84, 8.21, repro,
2001-09-23,-1.18, 1.70, -2.73, 2.20, 1.98, 8.84, repro,
2001-09-24,-0.39, 2.45, -1.87, 2.13, 1.91, 8.55, repro,
2001-09-25,-1.52, 2.48, 20.26, 2.16, 1.93, 8.45, repro,
2001-09-26,-0.66, 2.58, -3.47, 2.13, 1.93, 8.58, repro,
2001-09-27,-1.13, 2.37, 5.79, 2.16, 1.98, 8.53, repro,
2001-09-28,-1.60, 1.66, 1.10, 2.12, 1.90, 8.29, repro,
2001-09-29,-0.22, -0.02, -2.81, 2.21, 2.06, 8.77, repro,
2001-09-30,-0.82, 1.68, 4.73, 2.11, 1.89, 8.31, repro,
2001-10-01,-1.19, 1.11, 3.56, 2.06, 1.78, 8.06, repro,
2001-10-02,-0.99, 2.25, 4.51, 2.14, 1.92, 8.46, repro,
2001-10-03,-0.47, 0.62, 3.57, 2.24, 1.99, 8.88, repro,
2001-10-04,0.27, 0.50, -4.89, 2.57, 2.37, 10.95, repro,
2001-10-05,0.62, 2.65, -2.09, 2.66, 2.28, 11.25, repro,
2001-10-06,-1.80, 2.15, -5.62, 2.15, 1.92, 8.32, repro,
2001-10-07,-1.68, 1.90, 0.74, 2.18, 1.88, 8.49, repro,
2001-10-08,-1.06, 1.31, -6.18, 2.22, 1.93, 8.79, repro,
2001-10-09,0.19, 0.14, 2.31, 2.18, 1.95, 8.79, repro,
2001-10-10,-0.77, 2.61, -10.01, 2.20, 1.92, 8.68, repro,
2001-10-11,-0.85, 1.12, 2.66, 2.19, 1.89, 8.57, repro,
2001-10-12,-0.68, 2.31, 1.17, 2.15, 1.82, 8.48, repro,
2001-10-13,-0.58, 2.02, 5.81, 2.14, 1.91, 8.43, repro,
2001-10-14,-0.79, 0.30, -0.24, 2.15, 1.89, 8.37, repro,
2001-10-15,-0.11, 1.04, -1.77, 2.22, 1.92, 8.54, repro,
2001-10-16,-2.62, 0.59, -0.10, 2.20, 1.82, 8.53, repro,
2001-10-17,-1.81, 2.98, -2.71, 2.29, 1.95, 8.79, repro,
2001-10-18,-1.17, 0.52, 4.07, 2.22, 1.88, 8.69, repro,
2001-10-19,-2.04, 0.04, 0.79, 2.35, 1.98, 9.04, repro,
2001-10-20,0.38, 1.91, 3.44, 2.25, 1.96, 8.87, repro,
2001-10-21,-1.74, 2.92, 0.31, 2.33, 1.92, 8.99, repro,
2001-10-22,-1.80, -1.79, 1.75, 2.27, 2.10, 8.87, repro,
2001-10-23,-0.41, 0.30, 3.31, 2.25, 1.87, 8.69, repro,
2001-10-24,0.28, 2.33, 3.01, 2.25, 1.88, 8.73, repro,
2001-10-25,-1.90, 3.07, -2.25, 2.56, 2.16, 9.48, repro,
2001-10-26,-1.06, 0.97, 3.08, 2.18, 1.90, 8.47, repro,
2001-10-27,-3.02, 2.03, 3.40, 2.24, 1.98, 8.63, repro,
2001-10-28,0.08, 1.48, -1.05, 2.27, 2.05, 8.94, repro,
2001-10-29,-0.15, 0.88, 4.72, 2.13, 1.80, 8.28, repro,
2001-10-30,-0.12, 0.88, 0.66, 2.20, 1.95, 8.62, repro,
2001-10-31,1.03, 2.23, 3.25, 2.15, 1.85, 8.45, repro,
2001-11-01,0.62, 1.40, 0.60, 2.17, 1.90, 8.55, repro,
2001-11-02,-1.35, 1.15, 8.52, 2.21, 1.96, 8.66, repro,
2001-11-03,-0.18, 0.85, -0.16, 2.27, 1.98, 8.79, repro,
2001-11-04,-1.53, 1.70, 0.78, 2.23, 1.99, 8.80, repro,
2001-11-05,-1.00, 2.27, 2.42, 2.28, 2.02, 9.03, repro,
2001-11-06,-1.29, 1.01, 4.20, 2.36, 2.16, 9.17, repro,
2001-11-07,-0.81, 1.42, 0.60, 2.28, 1.94, 8.82, repro,
2001-11-08,-2.08, 1.06, 2.59, 2.40, 2.11, 9.33, repro,
2001-11-09,-0.28, 0.36, 2.05, 2.32, 1.98, 9.38, repro,
2001-11-10,-2.21, 0.46, 1.50, 2.13, 1.84, 8.28, repro,
2001-11-11,-1.93, -0.33, 3.35, 2.08, 1.77, 8.11, repro,
2001-11-12,-1.87, 2.61, 0.87, 2.11, 1.81, 8.25, repro,
2001-11-13,-2.60, 2.33, 6.91, 2.29, 1.93, 8.81, repro,
2001-11-14,-1.61, -0.38, 7.25, 2.20, 1.83, 8.46, repro,
2001-11-15,-1.49, 3.26, -2.77, 2.25, 1.89, 8.90, repro,
2001-11-16,-1.84, 1.44, -1.48, 2.26, 2.02, 8.89, repro,
2001-11-17,-1.94, 1.75, 3.96, 2.19, 1.99, 8.69, repro,
2001-11-18,-2.14, 0.89, -7.08, 2.12, 1.90, 8.68, repro,
2001-11-19,-2.81, 0.66, -7.38, 2.13, 1.85, 8.57, repro,
2001-11-20,-2.91, 1.22, 10.42, 2.33, 2.03, 9.41, repro,
2001-11-21,-4.09, 2.38, 8.19, 2.25, 2.09, 9.14, repro,
2001-11-22,-2.25, 2.93, -0.80, 2.24, 1.99, 8.97, repro,
2001-11-23,-4.04, 2.21, -0.51, 2.42, 2.06, 9.74, repro,
2001-11-24,-0.59, 1.62, 9.93, 2.39, 2.03, 9.57, repro,
2001-11-25,-2.20, 2.67, 3.18, 2.28, 1.88, 8.67, repro,
2001-11-26,-2.62, 4.29, 0.88, 2.42, 2.22, 9.80, repro,
2001-11-27,-2.68, 2.22, -12.48, 3.20, 3.02, 12.60, repro,
2002-02-13,-1.40, -1.50, 5.88, 5.37, 5.03, 21.46, repro,
2002-02-14,-0.90, 1.33, 1.01, 2.33, 2.28, 9.54, repro,
2002-02-15,-0.35, -0.15, 5.05, 2.25, 2.12, 9.11, repro,
2002-02-16,-2.20, 1.07, 3.24, 2.19, 1.97, 8.84, repro,
2002-02-17,-2.76, 0.05, 2.51, 2.08, 1.95, 8.60, repro,
2002-02-18,-2.69, 2.42, 9.72, 2.18, 2.11, 9.09, repro,
2002-02-19,0.80, 0.46, 14.00, 2.20, 2.01, 9.03, repro,
2002-02-20,2.83, 2.58, 6.27, 2.24, 2.07, 9.07, repro,
2002-02-21,-0.39, 1.52, 4.00, 2.19, 2.02, 8.89, repro,
2002-02-22,-0.47, 1.57, -9.77, 2.32, 2.09, 9.48, repro,
2002-02-23,-0.88, 2.99, -1.90, 2.25, 2.16, 9.76, repro,
2002-02-24,-1.15, 3.76, 12.11, 2.23, 2.04, 9.11, repro,
2002-02-25,-0.55, 0.74, 15.29, 2.23, 2.06, 9.09, repro,
2002-02-26,-0.79, 2.08, 5.87, 2.40, 2.18, 9.78, repro,
2002-02-27,-0.74, 1.99, 3.79, 2.28, 2.06, 9.51, repro,
2002-02-28,-1.47, 1.98, 5.29, 2.18, 2.04, 9.03, repro,
2002-03-01,-0.29, 1.06, 16.08, 2.18, 2.08, 8.96, repro,
2002-03-02,-2.00, 1.14, 10.62, 1.97, 1.83, 8.24, repro,
2002-03-03,-0.69, -0.51, -3.15, 2.06, 1.96, 8.52, repro,
2002-03-04,-1.71, 2.28, 6.66, 2.05, 1.93, 8.56, repro,
2002-03-05,-1.28, 3.35, -9.37, 2.05, 1.89, 8.55, repro,
2002-03-06,-1.07, -0.67, -2.89, 2.23, 1.97, 9.33, repro,
2002-03-07,-1.93, 0.70, -2.77, 2.01, 1.80, 8.27, repro,
2002-03-08,-1.36, 0.90, 2.75, 2.33, 2.07, 9.27, repro,
2002-03-09,-2.05, -0.18, 7.44, 2.10, 1.87, 8.88, repro,
2002-03-10,-0.47, 1.99, -4.63, 2.06, 1.85, 8.55, repro,
2002-03-11,1.01, 1.71, -6.13, 2.08, 2.00, 8.84, repro,
2002-03-12,-0.50, 0.70, 1.59, 2.01, 1.84, 8.33, repro,
2002-03-13,-1.59, 2.06, 8.48, 2.03, 1.82, 8.31, repro,
2002-03-14,-2.30, 1.76, 4.75, 2.08, 1.84, 8.43, repro,
2002-03-15,-2.50, 1.72, 12.02, 2.05, 1.90, 8.60, repro,
2002-03-16,-2.72, 1.90, 2.66, 1.99, 1.80, 8.24, repro,
2002-03-17,-0.75, 2.13, 0.26, 2.10, 1.88, 8.46, repro,
2002-03-18,-0.83, 1.55, -3.49, 2.18, 2.16, 9.11, repro,
2002-03-19,-1.15, 0.90, -0.94, 2.01, 1.86, 8.40, repro,
2002-03-20,-1.64, 0.48, -0.94, 2.04, 1.90, 8.52, repro,
2002-03-21,-1.37, 1.24, -2.16, 2.03, 1.85, 8.44, repro,
2002-03-22,-0.92, 0.18, -8.94, 2.01, 1.85, 8.39, repro,
2002-03-23,-0.38, 1.28, -4.26, 2.08, 1.89, 8.47, repro,
2002-03-24,-3.09, 4.81, -6.45, 2.12, 1.89, 8.45, repro,
2002-03-25,-0.85, 1.76, -1.38, 2.02, 1.76, 8.23, repro,
2002-03-26,-1.46, 1.41, -8.15, 2.09, 1.88, 8.66, repro,
2002-03-27,-1.82, 1.56, -3.60, 2.25, 2.12, 9.48, repro,
2002-03-28,-0.61, -0.38, 0.25, 2.23, 2.09, 9.22, repro,
2002-03-29,-0.75, 3.12, -12.89, 2.31, 2.12, 9.28, repro,
2002-03-30,-1.38, 1.52, -6.86, 2.12, 1.87, 8.60, repro,
2002-03-31,-1.98, -0.25, 6.18, 2.20, 1.85, 9.06, repro,
2002-04-01,-1.80, 0.39, -0.49, 2.14, 1.95, 8.76, repro,
2002-04-02,-1.54, 1.64, -2.98, 2.13, 1.88, 8.66, repro,
2002-04-03,-1.91, 1.35, -1.08, 2.14, 1.97, 8.86, repro,
2002-04-04,-1.40, 2.08, -3.75, 2.11, 1.92, 8.64, repro,
2002-04-05,-0.86, 1.35, -6.68, 2.21, 1.92, 8.83, repro,
2002-04-06,-0.84, 1.54, -8.24, 2.18, 1.97, 9.01, repro,
2002-04-07,-1.59, 2.69, 1.58, 2.07, 1.75, 8.30, repro,
2002-04-08,-1.97, 0.23, 4.72, 2.19, 2.02, 8.84, repro,
2002-04-09,-1.74, 0.46, 1.87, 2.21, 2.00, 8.79, repro,
2002-04-10,0.17, 4.37, -6.68, 2.26, 1.98, 9.29, repro,
2002-04-11,-1.65, 2.12, -2.23, 2.06, 1.78, 8.34, repro,
2002-04-12,-1.75, 1.38, -2.94, 2.30, 2.00, 9.38, repro,
2002-04-13,-1.34, 0.62, 3.76, 2.17, 1.96, 8.76, repro,
2002-04-14,-1.25, 0.31, 15.72, 2.12, 1.86, 8.38, repro,
2002-04-15,-1.20, 3.26, 10.00, 2.25, 2.03, 9.51, repro,
2002-04-16,-0.52, 1.54, 8.72, 2.20, 2.12, 9.24, repro,
2002-04-17,-0.63, 2.06, 3.58, 2.11, 1.81, 8.64, repro,
2002-04-18,-0.35, 2.01, 6.20, 2.13, 1.92, 8.83, repro,
2002-04-19,-1.69, 3.22, 0.49, 2.34, 2.08, 10.06, repro,
2002-04-20,-1.54, 0.98, 3.10, 2.10, 1.88, 8.46, repro,
2002-04-21,-2.65, 2.22, 5.44, 2.18, 1.92, 8.95, repro,
2002-04-22,-1.66, 2.09, 4.49, 2.08, 1.93, 8.70, repro,
2002-04-23,-1.77, 2.24, 0.64, 2.12, 1.99, 9.02, repro,
2002-04-24,-1.55, 1.23, -0.56, 2.32, 2.09, 9.47, repro,
2002-04-25,-0.67, 2.43, -0.99, 2.05, 1.80, 8.37, repro,
2002-04-26,-0.94, 0.21, 4.55, 2.11, 1.80, 8.50, repro,
2002-04-27,0.93, 2.11, 3.49, 2.09, 1.88, 8.54, repro,
2002-04-28,0.91, 1.98, -4.76, 2.28, 1.94, 9.10, repro,
2002-04-29,-2.22, 1.75, 1.29, 2.11, 1.88, 8.50, repro,
2002-04-30,-2.36, 2.73, 2.98, 2.29, 1.91, 9.20, repro,
2002-05-01,-0.65, 2.83, 11.89, 2.16, 1.85, 8.80, repro,
2002-05-02,-0.95, 2.22, -3.26, 2.07, 1.87, 8.55, repro,
2002-05-03,-0.17, 1.37, 4.92, 2.23, 1.89, 8.95, repro,
2002-05-04,-1.63, 1.02, 0.65, 2.06, 1.81, 8.32, repro,
2002-05-05,-1.62, 0.80, 6.71, 2.25, 1.92, 8.83, repro,
2002-05-06,-1.85, 0.58, 6.26, 2.15, 1.90, 8.54, repro,
2002-05-07,-0.48, 0.41, -8.24, 2.25, 1.95, 9.03, repro,
2002-05-08,-1.15, -0.34, 5.35, 2.34, 2.12, 9.60, repro,
2002-05-09,-0.24, -0.15, 3.94, 2.07, 1.83, 8.30, repro,
2002-05-10,-2.65, 1.27, 5.97, 2.14, 1.82, 8.56, repro,
2002-05-11,-1.44, 1.00, 9.92, 2.08, 1.79, 8.17, repro,
2002-05-12,-2.06, 1.34, 0.89, 2.20, 1.83, 8.57, repro,
2002-05-13,-4.58, 1.13, 12.61, 2.41, 2.12, 10.06, repro,